| time (UTC) | temp F | wind direction | speed knots | gust knots | rain 1hr in | rain 24hr in | rain mn in | humidity % | barometer mb |
| 20260505224023 | 64 | 332 | 4.3 | 7.8 | 0.00 | 0.00 | 0.00 | 68 | 1015.2 |
| 20260505223534 | 64 | 137 | 1.7 | 7.8 | 0.00 | 0.00 | 0.00 | 69 | 1015.1 |
| 20260505223025 | 64 | 320 | 3.5 | 7.8 | 0.00 | 0.00 | 0.00 | 69 | 1015.2 |
| 20260505222556 | 64 | 342 | 3.5 | 7.8 | 0.00 | 0.00 | 0.00 | 68 | 1015.2 |
| 20260505222026 | 64 | 11 | 1.7 | 7.0 | 0.00 | 0.00 | 0.00 | 70 | 1015.2 |
| 20260505221523 | 64 | 323 | 3.5 | 8.7 | 0.00 | 0.00 | 0.00 | 69 | 1015.2 |
| 20260505221034 | 63 | 252 | 3.5 | 8.7 | 0.00 | 0.00 | 0.00 | 69 | 1015.2 |
| 20260505220524 | 64 | 313 | 2.6 | 7.0 | 0.00 | 0.00 | 0.00 | 69 | 1015.2 |
| 20260505220050 | 64 | 260 | 0.9 | 8.7 | 0.00 | 0.00 | 0.00 | 67 | 1015.2 |
| 20260505215545 | 64 | 306 | 2.6 | 8.7 | 0.00 | 0.00 | 0.00 | 68 | 1015.2 |
| 20260505215017 | 64 | 279 | 0.9 | 7.8 | 0.00 | 0.00 | 0.00 | 69 | 1015.3 |
| 20260505214528 | 64 | 289 | 2.6 | 7.8 | 0.00 | 0.00 | 0.00 | 69 | 1015.3 |
| 20260505214039 | 64 | 254 | 2.6 | 9.6 | 0.00 | 0.00 | 0.00 | 69 | 1015.3 |
| 20260505213530 | 64 | 43 | 2.6 | 9.6 | 0.00 | 0.00 | 0.00 | 69 | 1015.2 |
| 20260505213026 | 65 | 260 | 3.5 | 9.6 | 0.00 | 0.00 | 0.00 | 67 | 1015.2 |
| 20260505212518 | 65 | 252 | 2.6 | 6.1 | 0.00 | 0.00 | 0.00 | 70 | 1015.3 |
| 20260505212029 | 64 | 205 | 1.7 | 6.1 | 0.00 | 0.00 | 0.00 | 71 | 1015.3 |
| 20260505211520 | 64 | 234 | 0.9 | 6.1 | 0.00 | 0.00 | 0.00 | 70 | 1015.3 |
| 20260505211031 | 64 | 338 | 0.9 | 8.7 | 0.00 | 0.00 | 0.00 | 69 | 1015.2 |
| 20260505210522 | 65 | 5 | 0.9 | 8.7 | 0.00 | 0.00 | 0.00 | 66 | 1015.3 |
| 20260505210047 | 65 | 296 | 2.6 | 8.7 | 0.00 | 0.00 | 0.00 | 69 | 1015.2 |
| 20260505205522 | 64 | 345 | 0.9 | 7.0 | 0.00 | 0.00 | 0.00 | 68 | 1015.3 |
| 20260505205033 | 64 | 334 | 1.7 | 10.4 | 0.00 | 0.00 | 0.00 | 70 | 1015.3 |
| 20260505204544 | 63 | 322 | 1.7 | 10.4 | 0.00 | 0.00 | 0.00 | 70 | 1015.3 |
| 20260505204018 | 64 | 286 | 0.9 | 5.2 | 0.00 | 0.00 | 0.00 | 69 | 1015.4 |
| 20260505203529 | 65 | 275 | 1.7 | 7.0 | 0.00 | 0.00 | 0.00 | 69 | 1015.3 |
| 20260505203041 | 66 | 254 | 3.5 | 7.0 | 0.00 | 0.00 | 0.00 | 67 | 1015.3 |
| 20260505202532 | 65 | 350 | 1.7 | 6.1 | 0.00 | 0.00 | 0.00 | 70 | 1015.2 |
| 20260505202024 | 65 | 260 | 3.5 | 6.1 | 0.00 | 0.00 | 0.00 | 69 | 1015.3 |
| 20260505201516 | 66 | 311 | 1.7 | 6.1 | 0.00 | 0.00 | 0.00 | 67 | 1015.3 |
| 20260505201024 | 67 | 294 | 1.7 | 5.2 | 0.00 | 0.00 | 0.00 | 68 | 1015.3 |
| 20260505200554 | 67 | 39 | 1.7 | 4.3 | 0.00 | 0.00 | 0.00 | 65 | 1015.3 |
| 20260505200040 | 66 | 330 | 0.9 | 4.3 | 0.00 | 0.00 | 0.00 | 68 | 1015.3 |
| 20260505195529 | 66 | 12 | 0.9 | 5.2 | 0.00 | 0.00 | 0.00 | 68 | 1015.3 |
| 20260505195023 | 65 | 301 | 1.7 | 5.2 | 0.00 | 0.00 | 0.00 | 67 | 1015.3 |
| 20260505194515 | 64 | 321 | 1.7 | 5.2 | 0.00 | 0.00 | 0.00 | 69 | 1015.3 |
| 20260505194023 | 64 | 21 | 1.7 | 5.2 | 0.00 | 0.00 | 0.00 | 67 | 1015.3 |
| 20260505193523 | 65 | 306 | 2.6 | 5.2 | 0.00 | 0.00 | 0.00 | 67 | 1015.3 |
| 20260505193034 | 65 | 312 | 0.0 | 4.3 | 0.00 | 0.00 | 0.00 | 71 | 1015.3 |
| 20260505192546 | 64 | 351 | 0.9 | 3.5 | 0.00 | 0.00 | 0.00 | 70 | 1015.4 |
| 20260505192033 | 63 | 39 | 0.0 | 4.3 | 0.00 | 0.00 | 0.00 | 70 | 1015.3 |
| 20260505191544 | 63 | 132 | 1.7 | 4.3 | 0.00 | 0.00 | 0.00 | 67 | 1015.3 |
| 20260505191035 | 62 | 138 | 0.9 | 2.6 | 0.00 | 0.00 | 0.00 | 71 | 1015.4 |
| 20260505190525 | 61 | 321 | 0.0 | 2.6 | 0.00 | 0.00 | 0.00 | 72 | 1015.4 |
| 20260505190051 | 61 | 306 | 0.0 | 2.6 | 0.00 | 0.00 | 0.00 | 75 | 1015.4 |
| 20260505185527 | 61 | 186 | 0.0 | 2.6 | 0.00 | 0.00 | 0.00 | 71 | 1015.4 |
| 20260505185022 | 61 | 256 | 0.9 | 2.6 | 0.00 | 0.00 | 0.00 | 71 | 1015.4 |
| 20260505184534 | 61 | 278 | 0.9 | 1.7 | 0.00 | 0.00 | 0.00 | 72 | 1015.4 |
| 20260505184024 | 61 | 232 | 0.0 | 2.6 | 0.00 | 0.00 | 0.00 | 74 | 1015.4 |
| 20260505183516 | 60 | 232 | 0.0 | 4.3 | 0.00 | 0.00 | 0.00 | 72 | 1015.4 |
| 20260505183027 | 60 | 288 | 0.9 | 4.3 | 0.00 | 0.00 | 0.00 | 72 | 1015.5 |
| 20260505182518 | 60 | 263 | 0.9 | 4.3 | 0.00 | 0.00 | 0.00 | 72 | 1015.4 |
| 20260505182029 | 60 | 315 | 0.9 | 5.2 | 0.00 | 0.00 | 0.00 | 73 | 1015.4 |
| 20260505181519 | 60 | 280 | 0.9 | 5.2 | 0.00 | 0.00 | 0.00 | 77 | 1015.3 |
| 20260505181051 | 59 | 294 | 0.9 | 2.6 | 0.00 | 0.00 | 0.00 | 76 | 1015.3 |
| 20260505180522 | 59 | 360 | 0.9 | 2.6 | 0.00 | 0.00 | 0.00 | 73 | 1015.3 |
| 20260505180053 | 59 | 284 | 0.9 | 2.6 | 0.00 | 0.00 | 0.00 | 74 | 1015.4 |
| 20260505175526 | 59 | 30 | 0.0 | 0.0 | 0.00 | 0.00 | 0.00 | 74 | 1015.4 |
| 20260505175018 | 59 | 124 | 0.0 | 0.0 | 0.00 | 0.00 | 0.00 | 75 | 1015.3 |
| 20260505174530 | 59 | 124 | 0.0 | 0.0 | 0.00 | 0.00 | 0.00 | 74 | 1015.3 |
| 20260505174021 | 59 | 124 | 0.0 | 0.0 | 0.00 | 0.00 | 0.00 | 76 | 1015.3 |
| 20260505173531 | 59 | 104 | 0.0 | 0.0 | 0.00 | 0.00 | 0.00 | 77 | 1015.4 |
| 20260505173023 | 59 | 104 | 0.0 | 0.0 | 0.00 | 0.00 | 0.00 | 80 | 1015.3 |
| 20260505172516 | 58 | 104 | 0.0 | 0.0 | 0.00 | 0.00 | 0.00 | 80 | 1015.3 |
| 20260505172027 | 58 | 104 | 0.0 | 0.0 | 0.00 | 0.00 | 0.00 | 79 | 1015.3 |
| 20260505171523 | 58 | 104 | 0.0 | 0.0 | 0.00 | 0.00 | 0.00 | 77 | 1015.3 |
| 20260505171054 | 58 | 104 | 0.0 | 0.0 | 0.00 | 0.00 | 0.00 | 81 | 1015.3 |
| 20260505170545 | 58 | 104 | 0.0 | 0.0 | 0.00 | 0.00 | 0.00 | 81 | 1015.2 |
| 20260505170050 | 58 | 330 | 0.0 | 0.0 | 0.00 | 0.00 | 0.00 | 81 | 1015.2 |
| 20260505165525 | 58 | 330 | 0.0 | 0.0 | 0.00 | 0.00 | 0.00 | 81 | 1015.2 |
| 20260505165017 | 57 | 329 | 0.0 | 0.9 | 0.00 | 0.00 | 0.00 | 82 | 1015.2 |
| 20260505164548 | 57 | 330 | 0.0 | 0.9 | 0.00 | 0.00 | 0.00 | 82 | 1015.3 |
| 20260505164019 | 57 | 311 | 0.0 | 0.0 | 0.00 | 0.00 | 0.00 | 83 | 1015.3 |
| 20260505163530 | 56 | 311 | 0.0 | 0.0 | 0.00 | 0.00 | 0.00 | 82 | 1015.2 |
| 20260505163038 | 56 | 311 | 0.0 | 0.0 | 0.00 | 0.00 | 0.00 | 82 | 1015.2 |
| 20260505162529 | 56 | 13 | 0.0 | 0.0 | 0.00 | 0.00 | 0.00 | 82 | 1015.2 |
| 20260505162025 | 56 | 25 | 0.0 | 0.0 | 0.00 | 0.00 | 0.00 | 83 | 1015.3 |
| 20260505161537 | 56 | 25 | 0.0 | 0.0 | 0.00 | 0.00 | 0.00 | 83 | 1015.3 |
| 20260505161027 | 56 | 306 | 0.0 | 0.0 | 0.00 | 0.00 | 0.00 | 85 | 1015.2 |
| 20260505160519 | 55 | 306 | 0.0 | 0.0 | 0.00 | 0.00 | 0.00 | 83 | 1015.3 |
| 20260505153022 | 55 | 80 | 0.0 | 0.0 | 0.00 | 0.00 | 0.00 | 86 | 1015.3 |
| 20260505152532 | 55 | 80 | 0.0 | 0.0 | 0.00 | 0.00 | 0.00 | 86 | 1015.4 |
| 20260505152024 | 55 | 80 | 0.0 | 0.0 | 0.00 | 0.00 | 0.00 | 86 | 1015.4 |
| 20260505151535 | 55 | 80 | 0.0 | 0.0 | 0.00 | 0.00 | 0.00 | 86 | 1015.4 |
| 20260505151027 | 55 | 80 | 0.0 | 0.0 | 0.00 | 0.00 | 0.00 | 87 | 1015.3 |
| 20260505150518 | 54 | 80 | 0.0 | 0.0 | 0.00 | 0.00 | 0.00 | 88 | 1015.3 |
| 20260505140531 | 54 | 67 | 0.0 | 0.0 | 0.00 | 0.00 | 0.00 | 91 | 1015.1 |
| 20260505125030 | 53 | 61 | 0.0 | 0.0 | 0.00 | 0.00 | 0.00 | 90 | 1014.7 |
| 20260505124523 | 53 | 61 | 0.0 | 0.0 | 0.00 | 0.00 | 0.00 | 90 | 1014.6 |
| 20260505124033 | 53 | 61 | 0.0 | 0.0 | 0.00 | 0.00 | 0.00 | 90 | 1014.6 |
| 20260505123546 | 53 | 61 | 0.0 | 0.0 | 0.00 | 0.00 | 0.00 | 89 | 1014.6 |
| 20260505123016 | 53 | 61 | 0.0 | 0.0 | 0.00 | 0.00 | 0.00 | 90 | 1014.6 |
| 20260505122532 | 54 | 61 | 0.0 | 0.0 | 0.00 | 0.00 | 0.00 | 90 | 1014.6 |
| 20260505121525 | 54 | 61 | 0.0 | 0.0 | 0.00 | 0.00 | 0.00 | 89 | 1014.6 |
| 20260505121037 | 54 | 61 | 0.0 | 0.0 | 0.00 | 0.00 | 0.00 | 89 | 1014.6 |
| 20260505120549 | 54 | 61 | 0.0 | 0.0 | 0.00 | 0.00 | 0.00 | 89 | 1014.5 |
| 20260505120033 | 54 | 61 | 0.0 | 0.0 | 0.00 | 0.00 | 0.00 | 89 | 1014.5 |
| 20260505115528 | 54 | 61 | 0.0 | 0.0 | 0.00 | 0.00 | 0.00 | 89 | 1014.5 |
| 20260505115020 | 54 | 61 | 0.0 | 0.0 | 0.00 | 0.00 | 0.00 | 90 | 1014.4 |
| 20260505114532 | 54 | 61 | 0.0 | 0.0 | 0.00 | 0.00 | 0.00 | 89 | 1014.4 |
| 20260505114022 | 54 | 61 | 0.0 | 0.0 | 0.00 | 0.00 | 0.00 | 89 | 1014.3 |
| 20260505113531 | 54 | 61 | 0.0 | 0.0 | 0.00 | 0.00 | 0.00 | 89 | 1014.4 |
| 20260505113023 | 54 | 61 | 0.0 | 0.0 | 0.00 | 0.00 | 0.00 | 89 | 1014.3 |
| 20260505112519 | 54 | 61 | 0.0 | 0.0 | 0.00 | 0.00 | 0.00 | 89 | 1014.3 |
| 20260505112030 | 54 | 61 | 0.0 | 0.0 | 0.00 | 0.00 | 0.00 | 89 | 1014.3 |
| 20260505111544 | 54 | 61 | 0.0 | 0.0 | 0.00 | 0.00 | 0.00 | 89 | 1014.3 |
| 20260505111054 | 54 | 61 | 0.0 | 0.0 | 0.00 | 0.00 | 0.00 | 89 | 1014.2 |
| 20260505110524 | 54 | 61 | 0.0 | 0.0 | 0.00 | 0.00 | 0.00 | 88 | 1014.2 |
| 20260505102030 | 54 | 61 | 0.0 | 0.0 | 0.00 | 0.00 | 0.00 | 88 | 1014.1 |
| 20260505101541 | 54 | 61 | 0.0 | 0.0 | 0.00 | 0.00 | 0.00 | 89 | 1014.1 |
| 20260505101029 | 54 | 61 | 0.0 | 0.0 | 0.00 | 0.00 | 0.00 | 88 | 1014.0 |
| 20260505100519 | 54 | 61 | 0.0 | 0.0 | 0.00 | 0.00 | 0.00 | 89 | 1014.0 |
| 20260505100044 | 54 | 61 | 0.0 | 0.0 | 0.00 | 0.00 | 0.00 | 89 | 1014.1 |
| 20260505095518 | 54 | 61 | 0.0 | 0.0 | 0.00 | 0.00 | 0.00 | 89 | 1014.1 |
| 20260505095029 | 54 | 61 | 0.0 | 0.0 | 0.00 | 0.00 | 0.00 | 88 | 1014.1 |
| 20260505094520 | 54 | 61 | 0.0 | 0.0 | 0.00 | 0.00 | 0.00 | 88 | 1014.1 |
| 20260505094051 | 54 | 61 | 0.0 | 0.0 | 0.00 | 0.00 | 0.00 | 88 | 1014.1 |
| 20260505093526 | 54 | 61 | 0.0 | 0.0 | 0.00 | 0.00 | 0.00 | 88 | 1014.1 |
| 20260505093018 | 54 | 61 | 0.0 | 0.0 | 0.00 | 0.00 | 0.00 | 88 | 1014.1 |
| 20260505092529 | 54 | 61 | 0.0 | 0.0 | 0.00 | 0.00 | 0.00 | 88 | 1014.1 |
| 20260505092019 | 54 | 61 | 0.0 | 0.0 | 0.00 | 0.00 | 0.00 | 88 | 1014.1 |
| 20260505091531 | 54 | 61 | 0.0 | 0.0 | 0.00 | 0.00 | 0.00 | 88 | 1014.1 |
| 20260505091042 | 54 | 61 | 0.0 | 0.0 | 0.00 | 0.00 | 0.00 | 88 | 1014.2 |
| 20260505090553 | 54 | 61 | 0.0 | 0.0 | 0.00 | 0.00 | 0.00 | 88 | 1014.2 |
| 20260505090057 | 54 | 61 | 0.0 | 0.0 | 0.00 | 0.00 | 0.00 | 88 | 1014.2 |
| 20260505085529 | 54 | 61 | 0.0 | 0.0 | 0.00 | 0.00 | 0.00 | 88 | 1014.2 |
| 20260505085020 | 54 | 61 | 0.0 | 0.0 | 0.00 | 0.00 | 0.00 | 88 | 1014.3 |
| 20260505084530 | 54 | 61 | 0.0 | 0.0 | 0.00 | 0.00 | 0.00 | 88 | 1014.3 |
| 20260505084042 | 54 | 61 | 0.0 | 0.0 | 0.00 | 0.00 | 0.00 | 88 | 1014.3 |
| 20260505083517 | 54 | 61 | 0.0 | 0.0 | 0.00 | 0.00 | 0.00 | 88 | 1014.3 |
| 20260505083028 | 54 | 61 | 0.0 | 0.0 | 0.00 | 0.00 | 0.00 | 88 | 1014.2 |
| 20260505082520 | 54 | 61 | 0.0 | 0.0 | 0.00 | 0.00 | 0.00 | 88 | 1014.3 |
| 20260505082031 | 54 | 61 | 0.0 | 0.0 | 0.00 | 0.00 | 0.00 | 87 | 1014.3 |
| 20260505081523 | 54 | 61 | 0.0 | 0.0 | 0.00 | 0.00 | 0.00 | 88 | 1014.3 |
| 20260505081054 | 54 | 61 | 0.0 | 0.0 | 0.00 | 0.00 | 0.00 | 87 | 1014.3 |
| 20260505080525 | 54 | 61 | 0.0 | 0.0 | 0.00 | 0.00 | 0.00 | 88 | 1014.3 |
| 20260505080031 | 54 | 61 | 0.0 | 0.0 | 0.00 | 0.00 | 0.00 | 87 | 1014.3 |
| 20260505075527 | 54 | 61 | 0.0 | 0.0 | 0.00 | 0.00 | 0.00 | 88 | 1014.3 |
| 20260505075019 | 54 | 61 | 0.0 | 0.0 | 0.00 | 0.00 | 0.00 | 88 | 1014.4 |
| 20260505074530 | 54 | 61 | 0.0 | 0.0 | 0.00 | 0.00 | 0.00 | 88 | 1014.4 |
| 20260505074022 | 54 | 61 | 0.0 | 0.0 | 0.00 | 0.00 | 0.00 | 88 | 1014.5 |
| 20260505073534 | 54 | 61 | 0.0 | 0.0 | 0.00 | 0.00 | 0.00 | 88 | 1014.5 |
| 20260505073024 | 54 | 61 | 0.0 | 0.0 | 0.00 | 0.00 | 0.00 | 88 | 1014.5 |
| 20260505072516 | 54 | 61 | 0.0 | 0.0 | 0.00 | 0.00 | 0.00 | 87 | 1014.5 |
| 20260505072030 | 54 | 61 | 0.0 | 0.0 | 0.00 | 0.00 | 0.00 | 87 | 1014.5 |
| 20260505071522 | 54 | 61 | 0.0 | 0.0 | 0.00 | 0.00 | 0.00 | 88 | 1014.5 |
| 20260505071017 | 54 | 61 | 0.0 | 0.0 | 0.00 | 0.00 | 0.00 | 87 | 1014.5 |
| 20260505070527 | 54 | 61 | 0.0 | 0.0 | 0.00 | 0.00 | 0.00 | 87 | 1014.5 |
| 20260505070054 | 54 | 61 | 0.0 | 0.0 | 0.00 | 0.00 | 0.00 | 87 | 1014.5 |
| 20260505065528 | 54 | 61 | 0.0 | 0.0 | 0.00 | 0.00 | 0.00 | 87 | 1014.5 |
| 20260505065020 | 55 | 61 | 0.0 | 0.0 | 0.00 | 0.00 | 0.00 | 87 | 1014.5 |
| 20260505064531 | 55 | 61 | 0.0 | 0.0 | 0.00 | 0.00 | 0.00 | 88 | 1014.5 |
| 20260505064023 | 55 | 61 | 0.0 | 0.0 | 0.00 | 0.00 | 0.00 | 88 | 1014.6 |
| 20260505063530 | 55 | 61 | 0.0 | 0.0 | 0.00 | 0.00 | 0.00 | 87 | 1014.5 |
| 20260505063022 | 55 | 61 | 0.0 | 0.0 | 0.00 | 0.00 | 0.00 | 87 | 1014.5 |
| 20260505062533 | 55 | 61 | 0.0 | 0.0 | 0.00 | 0.00 | 0.00 | 87 | 1014.4 |
| 20260505062045 | 55 | 61 | 0.0 | 0.0 | 0.00 | 0.00 | 0.00 | 87 | 1014.4 |
| 20260505061519 | 55 | 61 | 0.0 | 0.0 | 0.00 | 0.00 | 0.00 | 86 | 1014.3 |
| 20260505061032 | 55 | 61 | 0.0 | 0.0 | 0.00 | 0.00 | 0.00 | 87 | 1014.3 |
| 20260505060520 | 55 | 61 | 0.0 | 0.0 | 0.00 | 0.00 | 0.00 | 86 | 1014.3 |
| 20260505060044 | 55 | 61 | 0.0 | 0.0 | 0.00 | 0.00 | 0.00 | 87 | 1014.4 |
| 20260505055520 | 55 | 61 | 0.0 | 0.0 | 0.00 | 0.00 | 0.00 | 86 | 1014.4 |
| 20260505055031 | 55 | 61 | 0.0 | 0.0 | 0.00 | 0.00 | 0.00 | 86 | 1014.4 |
| 20260505054522 | 55 | 61 | 0.0 | 0.0 | 0.00 | 0.00 | 0.00 | 86 | 1014.4 |
| 20260505054034 | 55 | 61 | 0.0 | 0.0 | 0.00 | 0.00 | 0.00 | 86 | 1014.3 |
| 20260505053547 | 55 | 61 | 0.0 | 0.0 | 0.00 | 0.00 | 0.00 | 86 | 1014.3 |
| 20260505053022 | 55 | 61 | 0.0 | 0.0 | 0.00 | 0.00 | 0.00 | 86 | 1014.3 |
| 20260505052532 | 55 | 61 | 0.0 | 0.0 | 0.00 | 0.00 | 0.00 | 85 | 1014.2 |
| 20260505052024 | 55 | 61 | 0.0 | 0.0 | 0.00 | 0.00 | 0.00 | 85 | 1014.2 |
| 20260505051515 | 55 | 61 | 0.0 | 0.0 | 0.00 | 0.00 | 0.00 | 85 | 1014.3 |
| 20260505051047 | 55 | 61 | 0.0 | 0.0 | 0.00 | 0.00 | 0.00 | 85 | 1014.3 |
| 20260505050518 | 56 | 61 | 0.0 | 0.0 | 0.00 | 0.00 | 0.00 | 85 | 1014.3 |
| 20260505041548 | 56 | 61 | 0.0 | 0.0 | 0.00 | 0.00 | 0.00 | 83 | 1013.8 |
| 20260505041019 | 56 | 61 | 0.0 | 0.0 | 0.00 | 0.00 | 0.00 | 83 | 1013.8 |
| 20260505040551 | 56 | 61 | 0.0 | 0.0 | 0.00 | 0.00 | 0.00 | 82 | 1013.8 |
| 20260505040036 | 56 | 61 | 0.0 | 0.0 | 0.00 | 0.00 | 0.00 | 83 | 1013.8 |
| 20260505035529 | 56 | 61 | 0.0 | 0.0 | 0.00 | 0.00 | 0.00 | 83 | 1013.6 |
| 20260505035020 | 56 | 61 | 0.0 | 0.0 | 0.00 | 0.00 | 0.00 | 82 | 1013.5 |
| 20260505034550 | 57 | 61 | 0.0 | 0.0 | 0.00 | 0.00 | 0.00 | 82 | 1013.5 |
| 20260505034040 | 57 | 61 | 0.0 | 0.0 | 0.00 | 0.00 | 0.00 | 81 | 1013.5 |
| 20260505033530 | 57 | 61 | 0.0 | 0.9 | 0.00 | 0.00 | 0.00 | 83 | 1013.5 |
| 20260505033025 | 57 | 61 | 0.0 | 0.9 | 0.00 | 0.00 | 0.00 | 82 | 1013.4 |
| 20260505032516 | 57 | 61 | 0.0 | 0.0 | 0.00 | 0.00 | 0.00 | 81 | 1013.4 |
| 20260505032028 | 57 | 345 | 0.0 | 0.0 | 0.00 | 0.00 | 0.00 | 80 | 1013.3 |
| 20260505031519 | 57 | 345 | 0.0 | 0.0 | 0.00 | 0.00 | 0.00 | 81 | 1013.2 |
| 20260505031030 | 57 | 345 | 0.0 | 2.6 | 0.00 | 0.00 | 0.00 | 81 | 1013.1 |
| 20260505030522 | 58 | 345 | 0.0 | 2.6 | 0.00 | 0.00 | 0.00 | 80 | 1013.2 |
| 20260505030045 | 58 | 350 | 0.0 | 1.7 | 0.00 | 0.00 | 0.00 | 81 | 1013.1 |
| 20260505025540 | 58 | 293 | 0.0 | 0.9 | 0.00 | 0.00 | 0.00 | 80 | 1013.1 |
| 20260505025030 | 58 | 318 | 0.0 | 0.9 | 0.00 | 0.00 | 0.00 | 79 | 1013.1 |
| 20260505024545 | 58 | 29 | 0.0 | 0.9 | 0.00 | 0.00 | 0.00 | 80 | 1013.1 |
| 20260505024015 | 59 | 271 | 0.0 | 0.9 | 0.00 | 0.00 | 0.00 | 80 | 1013.1 |
| 20260505023527 | 59 | 267 | 0.0 | 2.6 | 0.00 | 0.00 | 0.00 | 80 | 1013.0 |
| 20260505023018 | 59 | 267 | 0.0 | 2.6 | 0.00 | 0.00 | 0.00 | 78 | 1012.9 |
| 20260505022529 | 59 | 331 | 0.0 | 0.9 | 0.00 | 0.00 | 0.00 | 79 | 1012.9 |
| 20260505022019 | 59 | 331 | 0.0 | 1.7 | 0.00 | 0.00 | 0.00 | 79 | 1012.8 |
| 20260505021530 | 59 | 311 | 0.0 | 1.7 | 0.00 | 0.00 | 0.00 | 78 | 1012.8 |
| 20260505021021 | 60 | 313 | 0.0 | 1.7 | 0.00 | 0.00 | 0.00 | 78 | 1012.8 |
| 20260505020533 | 60 | 313 | 0.0 | 1.7 | 0.00 | 0.00 | 0.00 | 77 | 1012.8 |
| 20260505020041 | 60 | 15 | 0.0 | 1.7 | 0.00 | 0.00 | 0.00 | 77 | 1012.8 |
| 20260505015520 | 60 | 15 | 0.0 | 1.7 | 0.00 | 0.00 | 0.00 | 75 | 1012.8 |
| 20260505015032 | 60 | 51 | 0.0 | 0.9 | 0.00 | 0.00 | 0.00 | 76 | 1012.7 |
| 20260505014543 | 60 | 288 | 0.0 | 1.7 | 0.00 | 0.00 | 0.00 | 75 | 1012.7 |
| 20260505014053 | 60 | 289 | 0.0 | 2.6 | 0.00 | 0.00 | 0.00 | 75 | 1012.7 |
| 20260505013523 | 60 | 326 | 0.9 | 3.5 | 0.00 | 0.00 | 0.00 | 74 | 1012.7 |
| 20260505013015 | 60 | 322 | 0.9 | 3.5 | 0.00 | 0.00 | 0.00 | 75 | 1012.7 |
| 20260505012545 | 60 | 287 | 0.9 | 5.2 | 0.00 | 0.00 | 0.00 | 74 | 1012.7 |
| 20260505012016 | 60 | 261 | 1.7 | 5.2 | 0.00 | 0.00 | 0.00 | 74 | 1012.8 |
| 20260505011548 | 61 | 181 | 0.9 | 4.3 | 0.00 | 0.00 | 0.00 | 74 | 1012.9 |
| 20260505011017 | 61 | 213 | 0.0 | 4.3 | 0.00 | 0.00 | 0.00 | 74 | 1012.9 |
| 20260505010528 | 61 | 288 | 1.7 | 4.3 | 0.00 | 0.00 | 0.00 | 73 | 1012.9 |
| 20260505010038 | 61 | 220 | 0.9 | 5.2 | 0.00 | 0.00 | 0.00 | 73 | 1012.8 |
| 20260505005533 | 61 | 330 | 1.7 | 5.2 | 0.00 | 0.00 | 0.00 | 73 | 1012.8 |
| 20260505005024 | 61 | 184 | 1.7 | 6.1 | 0.00 | 0.00 | 0.00 | 73 | 1012.8 |
| 20260505004516 | 62 | 309 | 0.9 | 6.1 | 0.00 | 0.00 | 0.00 | 73 | 1012.8 |
| 20260505004027 | 62 | 360 | 0.0 | 6.1 | 0.00 | 0.00 | 0.00 | 73 | 1012.8 |
| 20260505003517 | 62 | 5 | 0.9 | 6.1 | 0.00 | 0.00 | 0.00 | 73 | 1012.8 |
| 20260505003028 | 62 | 338 | 0.9 | 5.2 | 0.00 | 0.00 | 0.00 | 73 | 1012.9 |
| 20260505002521 | 62 | 304 | 1.7 | 7.0 | 0.00 | 0.00 | 0.00 | 74 | 1012.8 |
| 20260505002052 | 62 | 200 | 0.9 | 7.0 | 0.00 | 0.00 | 0.00 | 75 | 1012.9 |
| 20260505001525 | 62 | 238 | 1.7 | 6.1 | 0.00 | 0.00 | 0.00 | 73 | 1013.0 |
| 20260505001018 | 62 | 113 | 0.9 | 6.1 | 0.00 | 0.00 | 0.00 | 73 | 1013.1 |
| 20260505000530 | 62 | 5 | 0.9 | 6.1 | 0.00 | 0.00 | 0.00 | 75 | 1013.1 |
| 20260505000037 | 62 | 306 | 1.7 | 5.2 | 0.00 | 0.00 | 0.00 | 74 | 1013.1 |
| 20260504235552 | 62 | 234 | 0.9 | 5.2 | 0.00 | 0.00 | 0.00 | 72 | 1013.1 |
| 20260504235023 | 63 | 271 | 0.9 | 3.5 | 0.00 | 0.00 | 0.00 | 73 | 1013.2 |
| 20260504234515 | 63 | 251 | 0.0 | 3.5 | 0.00 | 0.00 | 0.00 | 73 | 1013.2 |
| 20260504234026 | 63 | 24 | 0.0 | 6.1 | 0.00 | 0.00 | 0.00 | 74 | 1013.2 |
| 20260504233539 | 63 | 327 | 0.9 | 6.1 | 0.00 | 0.00 | 0.00 | 74 | 1013.2 |
| 20260504233029 | 62 | 265 | 0.9 | 6.1 | 0.00 | 0.00 | 0.00 | 75 | 1013.3 |
| 20260504232524 | 62 | 219 | 1.7 | 6.1 | 0.00 | 0.00 | 0.00 | 74 | 1013.3 |
| 20260504232034 | 62 | 5 | 0.9 | 6.1 | 0.00 | 0.00 | 0.00 | 73 | 1013.3 |
| 20260504231545 | 62 | 330 | 2.6 | 6.1 | 0.00 | 0.00 | 0.00 | 74 | 1013.4 |
| 20260504231035 | 62 | 49 | 0.0 | 5.2 | 0.00 | 0.00 | 0.00 | 74 | 1013.3 |
| 20260504230526 | 62 | 292 | 2.6 | 5.2 | 0.00 | 0.00 | 0.00 | 72 | 1013.4 |
| 20260504230051 | 63 | 47 | 0.9 | 3.5 | 0.00 | 0.00 | 0.00 | 73 | 1013.4 |
| 20260504225525 | 63 | 267 | 1.7 | 5.2 | 0.00 | 0.00 | 0.00 | 73 | 1013.4 |
| 20260504225037 | 63 | 225 | 0.9 | 6.1 | 0.00 | 0.00 | 0.00 | 76 | 1013.4 |
| 20260504224527 | 63 | 5 | 1.7 | 6.1 | 0.00 | 0.00 | 0.00 | 75 | 1013.5 |